TimeMST,TemperatureF,Dew PointF,Humidity,Sea Level PressureIn,VisibilityMPH,Wind Direction,Wind SpeedMPH,Gust SpeedMPH,PrecipitationIn,Events,Conditions,WindDirDegrees,DateUTC
12:53 AM,39.9,28.9,65,29.86,10.0,NW,3.5,-,N/A,,Clear,320,2012-12-06 07:53:00
1:53 AM,39.0,28.0,65,29.85,10.0,WNW,5.8,-,N/A,,Clear,300,2012-12-06 08:53:00
2:53 AM,39.9,28.0,63,29.84,10.0,Calm,Calm,-,N/A,,Clear,0,2012-12-06 09:53:00
3:53 AM,39.0,28.0,65,29.83,10.0,Calm,Calm,-,N/A,,Clear,0,2012-12-06 10:53:00
4:53 AM,37.0,27.0,67,29.84,10.0,Calm,Calm,-,N/A,,Clear,0,2012-12-06 11:53:00
5:53 AM,34.0,26.1,73,29.87,10.0,NNW,3.5,-,N/A,,Clear,330,2012-12-06 12:53:00
6:53 AM,37.0,28.0,70,29.89,10.0,Calm,Calm,-,N/A,,Clear,0,2012-12-06 13:53:00
7:53 AM,45.0,30.0,56,29.88,10.0,NNE,3.5,-,N/A,,Clear,20,2012-12-06 14:53:00
8:53 AM,51.1,30.9,46,29.88,10.0,Calm,Calm,-,N/A,,Clear,0,2012-12-06 15:53:00
9:53 AM,59.0,30.0,33,29.87,10.0,Calm,Calm,-,N/A,,Clear,0,2012-12-06 16:53:00
10:53 AM,64.0,28.9,27,29.85,10.0,Calm,Calm,-,N/A,,Clear,0,2012-12-06 17:53:00
11:53 AM,69.1,25.0,19,29.81,10.0,North,3.5,-,N/A,,Clear,360,2012-12-06 18:53:00
12:53 PM,73.0,26.1,17,29.77,10.0,Calm,Calm,-,N/A,,Clear,0,2012-12-06 19:53:00
1:53 PM,75.9,25.0,15,29.74,10.0,Calm,Calm,-,N/A,,Clear,0,2012-12-06 20:53:00
2:53 PM,79.0,21.0,12,29.71,10.0,Variable,4.6,-,N/A,,Clear,0,2012-12-06 21:53:00
3:53 PM,77.0,19.0,11,29.72,10.0,WNW,12.7,-,N/A,,Clear,290,2012-12-06 22:53:00
4:53 PM,68.0,21.0,17,29.74,10.0,WNW,6.9,-,N/A,,Clear,300,2012-12-06 23:53:00
5:53 PM,59.0,24.1,26,29.78,10.0,West,4.6,-,N/A,,Clear,280,2012-12-07 00:53:00
6:53 PM,55.0,24.1,30,29.79,10.0,West,4.6,-,N/A,,Clear,260,2012-12-07 01:53:00
7:53 PM,57.0,21.9,26,29.78,10.0,West,4.6,-,N/A,,Clear,280,2012-12-07 02:53:00
8:53 PM,51.1,23.0,33,29.78,10.0,SSW,6.9,-,N/A,,Clear,200,2012-12-07 03:53:00
9:53 PM,51.1,24.1,35,29.78,10.0,NE,4.6,-,N/A,,Clear,50,2012-12-07 04:53:00
10:53 PM,48.0,23.0,37,29.77,10.0,NNW,8.1,-,N/A,,Clear,330,2012-12-07 05:53:00
11:53 PM,46.0,23.0,40,29.77,10.0,West,5.8,-,N/A,,Clear,270,2012-12-07 06:53:00